Weather in Tyulkino

Russia / Perm Krai     59°50′22″N   56°31′27″E
temp.,
°C
wind,
m/s
gust,
m/s
humid.,
%
clouds,
%
prec.,
mm/h
press.,
hPa
HPBL,
m
19 january, wed
wed1923:00−5ssw41196100 1.0 1005512
02:00−4ssw31096100 0.8 1006498
05:00−4ssw41095100 1.3 1006444
08:00−4ssw3996100 0.6 1007410
11:00−4ssw399678 1.0 1008420
14:00−3sw399689 0.3 1010541
17:00−4sw259897 0.6 1012167
20:00−6sw2398100 0.5 101399
20 january, thu
thu2023:00−5s3109592 0.9 1013414
02:00−5s41195100 0.1 1013533
05:00−5s41293100 0.5 1013505
08:00−5ssw41095100 0.3 1013543
11:00−6sw41095100 0.9 1014793
14:00−8ssw4128855 0.1 1015678
17:00−10ssw5138969 0.1 1016521
20:00−9ssw51491100 0.0 1015619
21 january, fri
fri2123:00−7ssw51390100 0.1 1015713
02:00−7ssw51391100 0.1 1016747
05:00−7ssw51291100 0.1 1017664
08:00−8ssw41192100 0.0 1018492
11:00−9ssw41192100 0.0 1020433
14:00−8s41093100 0.0 1021408
17:00−9s499598 0.0 1022300
20:00−11s389694 0.0 1024237
22 january, sat
sat2223:00−14sse269883 0.0 1025126
02:00−18sse2210096 0.0 102733
05:00−19sse1110097 0.1 102825
08:00−20se1110094 0.1 102912
11:00−19se1110099 0.1 102918
14:00−11ese119571 0.0 102989
17:00−15ne1199100 0.0 10309
20:00−15ne1198100 0.0 10319
23 january, sun
sun2323:00−17ne1198100 0.0 10319
02:00−15ene1198100 0.0 103211
05:00−17s009981 0.0 10339
08:00−18ese1110072 0.0 10349
11:00−20sse1110084 0.0 103511
14:00−12se119119 0.0 1036100
17:00−16se119855 0.0 10379
20:00−19se1199100 0.0 10389